| time (UTC) | temp C | wind direction | speed KPH | gust KPH | rain 1hr cm | rain 24hr cm | rain mn cm | humidity % | barometer mb |
| 20260505022505 | 27 | 291 | 4.8 | 17.7 | 0.00 | 0.00 | 0.00 | 27 | 1006.3 |
| 20260505021506 | 28 | 288 | 6.4 | 16.1 | 0.00 | 0.00 | 0.00 | 26 | 1006.1 |
| 20260505020505 | 28 | 296 | 4.8 | 16.1 | 0.00 | 0.00 | 0.00 | 25 | 1006.3 |
| 20260505020005 | 28 | 315 | 4.8 | 19.3 | 0.00 | 0.00 | 0.00 | 25 | 1006.2 |
| 20260505015505 | 28 | 310 | 6.4 | 19.3 | 0.00 | 0.00 | 0.00 | 24 | 1006.2 |
| 20260505014505 | 29 | 293 | 4.8 | 17.7 | 0.00 | 0.00 | 0.00 | 24 | 1006.1 |
| 20260505014004 | 29 | 262 | 3.2 | 12.9 | 0.00 | 0.00 | 0.00 | 25 | 1006.1 |
| 20260505013005 | 30 | 256 | 4.8 | 12.9 | 0.00 | 0.00 | 0.00 | 25 | 1006.2 |
| 20260505012504 | 30 | 259 | 4.8 | 16.1 | 0.00 | 0.00 | 0.00 | 24 | 1006.2 |
| 20260505012005 | 30 | 273 | 3.2 | 16.1 | 0.00 | 0.00 | 0.00 | 23 | 1006.3 |
| 20260505011504 | 31 | 263 | 1.6 | 6.4 | 0.00 | 0.00 | 0.00 | 24 | 1006.3 |
| 20260505010005 | 30 | 193 | 1.6 | 8.0 | 0.00 | 0.00 | 0.00 | 24 | 1006.4 |
| 20260505005506 | 30 | 193 | 1.6 | 6.4 | 0.00 | 0.00 | 0.00 | 24 | 1006.4 |
| 20260505004504 | 30 | 214 | 0.0 | 3.2 | 0.00 | 0.00 | 0.00 | 23 | 1006.4 |
| 20260505004005 | 30 | 216 | 0.0 | 3.2 | 0.00 | 0.00 | 0.00 | 24 | 1006.4 |
| 20260505003504 | 30 | 216 | 1.6 | 4.8 | 0.00 | 0.00 | 0.00 | 23 | 1006.5 |
| 20260505003005 | 30 | 201 | 1.6 | 6.4 | 0.00 | 0.00 | 0.00 | 24 | 1006.5 |
| 20260505001505 | 30 | 83 | 1.6 | 6.4 | 0.00 | 0.00 | 0.00 | 24 | 1006.5 |
| 20260505001006 | 30 | 95 | 1.6 | 4.8 | 0.00 | 0.00 | 0.00 | 23 | 1006.4 |
| 20260505000504 | 30 | 78 | 0.0 | 4.8 | 0.00 | 0.00 | 0.00 | 23 | 1006.5 |
| 20260504235504 | 30 | 238 | 1.6 | 3.2 | 0.00 | 0.00 | 0.00 | 23 | 1006.4 |
| 20260504235005 | 30 | 244 | 1.6 | 3.2 | 0.00 | 0.00 | 0.00 | 22 | 1006.5 |
| 20260504234004 | 30 | 230 | 1.6 | 6.4 | 0.00 | 0.00 | 0.00 | 23 | 1006.5 |
| 20260504233505 | 30 | 224 | 1.6 | 6.4 | 0.00 | 0.00 | 0.00 | 23 | 1006.5 |
| 20260504233004 | 30 | 241 | 1.6 | 8.0 | 0.00 | 0.00 | 0.00 | 23 | 1006.5 |
| 20260504232505 | 31 | 243 | 3.2 | 8.0 | 0.00 | 0.00 | 0.00 | 23 | 1006.7 |
| 20260504232004 | 31 | 257 | 1.6 | 4.8 | 0.00 | 0.00 | 0.00 | 24 | 1006.6 |
| 20260504231505 | 30 | 313 | 1.6 | 6.4 | 0.00 | 0.00 | 0.00 | 24 | 1006.6 |
| 20260504231004 | 30 | 66 | 3.2 | 9.7 | 0.00 | 0.00 | 0.00 | 24 | 1006.7 |
| 20260504230504 | 30 | 89 | 3.2 | 9.7 | 0.00 | 0.00 | 0.00 | 22 | 1006.7 |
| 20260504230005 | 30 | 229 | 1.6 | 6.4 | 0.00 | 0.00 | 0.00 | 22 | 1006.8 |
| 20260504225504 | 31 | 264 | 1.6 | 6.4 | 0.00 | 0.00 | 0.00 | 23 | 1006.8 |
| 20260504224504 | 31 | 93 | 1.6 | 8.0 | 0.00 | 0.00 | 0.00 | 22 | 1007.0 |
| 20260504223505 | 31 | 164 | 3.2 | 8.0 | 0.00 | 0.00 | 0.00 | 23 | 1006.9 |
| 20260504223005 | 30 | 185 | 1.6 | 8.0 | 0.00 | 0.00 | 0.00 | 23 | 1007.0 |
| 20260504222504 | 30 | 61 | 4.8 | 11.3 | 0.00 | 0.00 | 0.00 | 24 | 1007.1 |
| 20260504222004 | 30 | 59 | 6.4 | 11.3 | 0.00 | 0.00 | 0.00 | 22 | 1007.2 |
| 20260504221505 | 30 | 60 | 1.6 | 9.7 | 0.00 | 0.00 | 0.00 | 22 | 1007.3 |
| 20260504221004 | 30 | 75 | 1.6 | 4.8 | 0.00 | 0.00 | 0.00 | 23 | 1007.3 |
| 20260504220504 | 30 | 68 | 1.6 | 9.7 | 0.00 | 0.00 | 0.00 | 22 | 1007.4 |
| 20260504220004 | 30 | 60 | 3.2 | 9.7 | 0.00 | 0.00 | 0.00 | 22 | 1007.5 |
| 20260504215504 | 30 | 61 | 3.2 | 8.0 | 0.00 | 0.00 | 0.00 | 23 | 1007.6 |
| 20260504215005 | 31 | 104 | 3.2 | 8.0 | 0.00 | 0.00 | 0.00 | 21 | 1007.7 |
| 20260504214504 | 32 | 204 | 3.2 | 9.7 | 0.00 | 0.00 | 0.00 | 20 | 1007.7 |
| 20260504214005 | 32 | 203 | 4.8 | 14.5 | 0.00 | 0.00 | 0.00 | 21 | 1007.8 |
| 20260504213504 | 32 | 201 | 3.2 | 14.5 | 0.00 | 0.00 | 0.00 | 21 | 1007.8 |
| 20260504213005 | 31 | 315 | 1.6 | 4.8 | 0.00 | 0.00 | 0.00 | 22 | 1008.0 |
| 20260504212505 | 30 | 328 | 1.6 | 4.8 | 0.00 | 0.00 | 0.00 | 21 | 1008.0 |
| 20260504212004 | 31 | 288 | 1.6 | 8.0 | 0.00 | 0.00 | 0.00 | 22 | 1008.1 |
| 20260504211505 | 32 | 195 | 1.6 | 9.7 | 0.00 | 0.00 | 0.00 | 21 | 1008.1 |
| 20260504211005 | 32 | 174 | 1.6 | 9.7 | 0.00 | 0.00 | 0.00 | 20 | 1008.2 |
| 20260504210504 | 32 | 186 | 3.2 | 11.3 | 0.00 | 0.00 | 0.00 | 21 | 1008.3 |
| 20260504210005 | 32 | 218 | 3.2 | 11.3 | 0.00 | 0.00 | 0.00 | 22 | 1008.3 |
| 20260504205504 | 31 | 257 | 1.6 | 8.0 | 0.00 | 0.00 | 0.00 | 22 | 1008.3 |
| 20260504205004 | 32 | 250 | 1.6 | 8.0 | 0.00 | 0.00 | 0.00 | 21 | 1008.3 |
| 20260504204004 | 32 | 196 | 3.2 | 14.5 | 0.00 | 0.00 | 0.00 | 24 | 1008.4 |
| 20260504203004 | 31 | 201 | 3.2 | 16.1 | 0.00 | 0.00 | 0.00 | 23 | 1008.5 |
| 20260504202004 | 31 | 225 | 1.6 | 8.0 | 0.00 | 0.00 | 0.00 | 23 | 1008.7 |
| 20260504201505 | 32 | 221 | 1.6 | 8.0 | 0.00 | 0.00 | 0.00 | 20 | 1008.8 |
| 20260504201004 | 31 | 229 | 3.2 | 6.4 | 0.00 | 0.00 | 0.00 | 22 | 1008.8 |
| 20260504200504 | 30 | 194 | 3.2 | 11.3 | 0.00 | 0.00 | 0.00 | 22 | 1008.8 |
| 20260504200004 | 30 | 72 | 3.2 | 11.3 | 0.00 | 0.00 | 0.00 | 22 | 1008.9 |
| 20260504195003 | 30 | 58 | 1.6 | 3.2 | 0.00 | 0.00 | 0.00 | 24 | 1009.0 |
| 20260504194504 | 30 | 62 | 1.6 | 6.4 | 0.00 | 0.00 | 0.00 | 23 | 1009.0 |
| 20260504194004 | 30 | 36 | 1.6 | 6.4 | 0.00 | 0.00 | 0.00 | 24 | 1009.1 |
| 20260504193505 | 31 | 249 | 1.6 | 4.8 | 0.00 | 0.00 | 0.00 | 21 | 1009.2 |
| 20260504193005 | 32 | 234 | 1.6 | 4.8 | 0.00 | 0.00 | 0.00 | 22 | 1009.3 |
| 20260504192504 | 31 | 224 | 3.2 | 11.3 | 0.00 | 0.00 | 0.00 | 23 | 1009.4 |
| 20260504192004 | 31 | 208 | 1.6 | 11.3 | 0.00 | 0.00 | 0.00 | 22 | 1009.4 |
| 20260504191505 | 31 | 172 | 1.6 | 6.4 | 0.00 | 0.00 | 0.00 | 24 | 1009.5 |
| 20260504191004 | 30 | 232 | 1.6 | 4.8 | 0.00 | 0.00 | 0.00 | 23 | 1009.6 |
| 20260504190504 | 30 | 224 | 1.6 | 6.4 | 0.00 | 0.00 | 0.00 | 24 | 1009.6 |
| 20260504190004 | 30 | 220 | 1.6 | 6.4 | 0.00 | 0.00 | 0.00 | 24 | 1009.7 |
| 20260504184504 | 30 | 238 | 1.6 | 4.8 | 0.00 | 0.00 | 0.00 | 22 | 1009.8 |
| 20260504184004 | 31 | 210 | 3.2 | 9.7 | 0.00 | 0.00 | 0.00 | 24 | 1009.9 |
| 20260504183503 | 30 | 203 | 3.2 | 9.7 | 0.00 | 0.00 | 0.00 | 24 | 1009.9 |
| 20260504183004 | 30 | 190 | 0.0 | 4.8 | 0.00 | 0.00 | 0.00 | 24 | 1009.9 |
| 20260504182503 | 28 | 285 | 1.6 | 6.4 | 0.00 | 0.00 | 0.00 | 25 | 1009.9 |
| 20260504182004 | 27 | 344 | 3.2 | 8.0 | 0.00 | 0.00 | 0.00 | 26 | 1009.9 |
| 20260504181504 | 27 | 22 | 1.6 | 8.0 | 0.00 | 0.00 | 0.00 | 26 | 1010.0 |
| 20260504181004 | 28 | 343 | 0.0 | 4.8 | 0.00 | 0.00 | 0.00 | 28 | 1010.0 |
| 20260504180504 | 27 | 26 | 0.0 | 3.2 | 0.00 | 0.00 | 0.00 | 29 | 1010.0 |
| 20260504180004 | 27 | 13 | 1.6 | 8.0 | 0.00 | 0.00 | 0.00 | 30 | 1010.0 |
| 20260504175004 | 26 | 79 | 1.6 | 8.0 | 0.00 | 0.00 | 0.00 | 30 | 1010.1 |
| 20260504174504 | 26 | 20 | 1.6 | 8.0 | 0.00 | 0.00 | 0.00 | 30 | 1010.1 |
| 20260504173504 | 26 | 352 | 1.6 | 4.8 | 0.00 | 0.00 | 0.00 | 32 | 1010.1 |
| 20260504173004 | 25 | 350 | 1.6 | 6.4 | 0.00 | 0.00 | 0.00 | 31 | 1010.1 |
| 20260504172504 | 25 | 336 | 1.6 | 6.4 | 0.00 | 0.00 | 0.00 | 34 | 1010.2 |
| 20260504172003 | 25 | 326 | 3.2 | 8.0 | 0.00 | 0.00 | 0.00 | 32 | 1010.2 |
| 20260504171504 | 24 | 342 | 1.6 | 8.0 | 0.00 | 0.00 | 0.00 | 32 | 1010.3 |
| 20260504170504 | 23 | 5 | 3.2 | 9.7 | 0.00 | 0.00 | 0.00 | 31 | 1010.3 |
| 20260504150506 | 18 | 319 | 4.8 | 9.7 | 0.00 | 0.00 | 0.00 | 42 | 1010.7 |
| 20260504140506 | 15 | 298 | 0.0 | 1.6 | 0.00 | 0.00 | 0.00 | 60 | 1010.5 |
| 20260504130506 | 12 | 0 | 0.0 | 0.0 | 0.00 | 0.00 | 0.00 | 62 | 1010.0 |
| 20260504110506 | 14 | 200 | 0.0 | 1.6 | 0.00 | 0.00 | 0.00 | 57 | 1010.0 |
| 20260504100505 | 12 | 276 | 0.0 | 1.6 | 0.00 | 0.00 | 0.00 | 68 | 1009.9 |
| 20260504082005 | 15 | 297 | 0.0 | 1.6 | 0.00 | 0.00 | 0.00 | 62 | 1009.7 |
| 20260504081506 | 15 | 298 | 0.0 | 1.6 | 0.00 | 0.00 | 0.00 | 62 | 1009.7 |
| 20260504050506 | 19 | 0 | 0.0 | 0.0 | 0.00 | 0.00 | 0.00 | 52 | 1010.0 |
| 20260504050005 | 19 | 0 | 0.0 | 0.0 | 0.00 | 0.00 | 0.00 | 51 | 1010.0 |
| 20260504045504 | 20 | 257 | 0.0 | 1.6 | 0.00 | 0.00 | 0.00 | 51 | 1009.9 |
| 20260504045005 | 20 | 258 | 0.0 | 1.6 | 0.00 | 0.00 | 0.00 | 51 | 1009.9 |
| 20260504044505 | 20 | 261 | 0.0 | 1.6 | 0.00 | 0.00 | 0.00 | 50 | 1009.9 |
| 20260504044004 | 20 | 265 | 0.0 | 1.6 | 0.00 | 0.00 | 0.00 | 49 | 1009.8 |
| 20260504043505 | 20 | 261 | 0.0 | 1.6 | 0.00 | 0.00 | 0.00 | 49 | 1009.8 |
| 20260504043005 | 21 | 254 | 0.0 | 1.6 | 0.00 | 0.00 | 0.00 | 49 | 1009.7 |
| 20260504042505 | 21 | 251 | 0.0 | 1.6 | 0.00 | 0.00 | 0.00 | 48 | 1009.7 |
| 20260504042005 | 21 | 0 | 0.0 | 0.0 | 0.00 | 0.00 | 0.00 | 47 | 1009.6 |
| 20260504041005 | 22 | 0 | 0.0 | 0.0 | 0.00 | 0.00 | 0.00 | 44 | 1009.4 |
| 20260504040505 | 22 | 0 | 0.0 | 0.0 | 0.00 | 0.00 | 0.00 | 43 | 1009.4 |
| 20260504040005 | 22 | 0 | 0.0 | 0.0 | 0.00 | 0.00 | 0.00 | 41 | 1009.4 |
| 20260504035005 | 23 | 0 | 0.0 | 0.0 | 0.00 | 0.00 | 0.00 | 40 | 1009.3 |
| 20260504034506 | 23 | 229 | 0.0 | 1.6 | 0.00 | 0.00 | 0.00 | 39 | 1009.2 |
| 20260504033504 | 23 | 0 | 0.0 | 0.0 | 0.00 | 0.00 | 0.00 | 38 | 1009.0 |
| 20260504033007 | 23 | 0 | 0.0 | 0.0 | 0.00 | 0.00 | 0.00 | 38 | 1009.1 |
| 20260504032506 | 23 | 0 | 0.0 | 0.0 | 0.00 | 0.00 | 0.00 | 37 | 1008.9 |
| 20260504032005 | 24 | 0 | 0.0 | 0.0 | 0.00 | 0.00 | 0.00 | 37 | 1008.9 |
| 20260504031505 | 24 | 0 | 0.0 | 0.0 | 0.00 | 0.00 | 0.00 | 37 | 1008.9 |
| 20260504031005 | 25 | 0 | 0.0 | 0.0 | 0.00 | 0.00 | 0.00 | 36 | 1008.9 |
| 20260504030505 | 25 | 193 | 0.0 | 1.6 | 0.00 | 0.00 | 0.00 | 34 | 1008.9 |
| 20260504030005 | 25 | 193 | 0.0 | 1.6 | 0.00 | 0.00 | 0.00 | 33 | 1008.9 |
| 20260504025505 | 26 | 0 | 0.0 | 0.0 | 0.00 | 0.00 | 0.00 | 33 | 1008.8 |
| 20260504025005 | 26 | 211 | 0.0 | 3.2 | 0.00 | 0.00 | 0.00 | 32 | 1008.8 |
| 20260504024505 | 26 | 209 | 0.0 | 3.2 | 0.00 | 0.00 | 0.00 | 31 | 1008.8 |
| 20260504023505 | 27 | 212 | 0.0 | 1.6 | 0.00 | 0.00 | 0.00 | 31 | 1008.8 |
| 20260504023005 | 27 | 210 | 0.0 | 3.2 | 0.00 | 0.00 | 0.00 | 30 | 1008.7 |